| time (UTC) | temp F | wind direction | speed MPH | gust MPH | rain 1hr in | rain 24hr in | rain mn in | humidity % | barometer mb |
| 20260505183506 | 72 | 169 | 4.0 | 9.0 | 0.00 | 0.01 | 0.00 | 52 | 1004.9 |
| 20260505183040 | 72 | 192 | 2.0 | 13.0 | 0.00 | 0.01 | 0.00 | 53 | 1005.0 |
| 20260505182507 | 72 | 201 | 3.0 | 13.0 | 0.00 | 0.01 | 0.00 | 52 | 1005.0 |
| 20260505182014 | 72 | 166 | 4.0 | 10.0 | 0.00 | 0.01 | 0.00 | 53 | 1004.9 |
| 20260505181526 | 71 | 190 | 3.0 | 11.0 | 0.00 | 0.01 | 0.00 | 53 | 1004.9 |
| 20260505181015 | 72 | 153 | 4.0 | 11.0 | 0.00 | 0.01 | 0.00 | 51 | 1005.0 |
| 20260505180509 | 72 | 161 | 5.0 | 11.0 | 0.00 | 0.01 | 0.00 | 51 | 1004.9 |
| 20260505180027 | 72 | 184 | 3.0 | 10.0 | 0.00 | 0.01 | 0.00 | 51 | 1005.0 |
| 20260505175506 | 72 | 185 | 3.0 | 10.0 | 0.00 | 0.01 | 0.00 | 51 | 1005.0 |
| 20260505175005 | 72 | 291 | 3.0 | 11.0 | 0.00 | 0.01 | 0.00 | 51 | 1005.1 |
| 20260505174516 | 73 | 154 | 3.0 | 11.0 | 0.00 | 0.01 | 0.00 | 50 | 1005.1 |
| 20260505174008 | 73 | 170 | 3.0 | 13.0 | 0.00 | 0.01 | 0.00 | 50 | 1005.3 |
| 20260505173509 | 73 | 146 | 3.0 | 13.0 | 0.00 | 0.01 | 0.00 | 50 | 1005.2 |
| 20260505173023 | 73 | 215 | 2.0 | 9.0 | 0.00 | 0.02 | 0.00 | 51 | 1005.4 |
| 20260505172506 | 72 | 202 | 4.0 | 14.0 | 0.00 | 0.02 | 0.00 | 51 | 1005.5 |
| 20260505172010 | 72 | 190 | 3.0 | 14.0 | 0.00 | 0.02 | 0.00 | 53 | 1005.6 |
| 20260505171526 | 71 | 211 | 2.0 | 11.0 | 0.00 | 0.02 | 0.00 | 53 | 1005.7 |
| 20260505171009 | 71 | 350 | 2.0 | 11.0 | 0.00 | 0.02 | 0.00 | 57 | 1005.8 |
| 20260505170509 | 70 | 155 | 3.0 | 13.0 | 0.00 | 0.02 | 0.00 | 56 | 1005.9 |
| 20260505170032 | 70 | 227 | 3.0 | 13.0 | 0.00 | 0.02 | 0.00 | 54 | 1005.9 |
| 20260505165510 | 70 | 191 | 4.0 | 12.0 | 0.00 | 0.02 | 0.00 | 54 | 1006.1 |
| 20260505165010 | 69 | 194 | 4.0 | 12.0 | 0.00 | 0.02 | 0.00 | 55 | 1005.9 |
| 20260505164512 | 69 | 173 | 3.0 | 12.0 | 0.00 | 0.02 | 0.00 | 56 | 1005.9 |
| 20260505164006 | 69 | 171 | 4.0 | 8.0 | 0.00 | 0.02 | 0.00 | 55 | 1006.1 |
| 20260505163509 | 68 | 234 | 3.0 | 12.0 | 0.00 | 0.02 | 0.00 | 58 | 1006.3 |
| 20260505163018 | 67 | 230 | 2.0 | 13.0 | 0.00 | 0.02 | 0.00 | 60 | 1006.5 |
| 20260505162506 | 67 | 184 | 5.0 | 13.0 | 0.00 | 0.02 | 0.00 | 59 | 1006.6 |
| 20260505162008 | 66 | 283 | 3.0 | 7.0 | 0.00 | 0.02 | 0.00 | 59 | 1006.7 |
| 20260505161528 | 66 | 281 | 3.0 | 13.0 | 0.00 | 0.02 | 0.00 | 60 | 1006.7 |
| 20260505161011 | 65 | 124 | 2.0 | 13.0 | 0.00 | 0.02 | 0.00 | 61 | 1006.8 |
| 20260505160509 | 65 | 150 | 3.0 | 7.0 | 0.00 | 0.02 | 0.00 | 61 | 1006.7 |
| 20260505153018 | 65 | 197 | 3.0 | 10.0 | 0.00 | 0.02 | 0.00 | 59 | 1007.5 |
| 20260505152508 | 65 | 222 | 3.0 | 10.0 | 0.00 | 0.02 | 0.00 | 59 | 1007.5 |
| 20260505152007 | 66 | 155 | 3.0 | 9.0 | 0.00 | 0.02 | 0.00 | 57 | 1007.4 |
| 20260505151520 | 67 | 204 | 4.0 | 10.0 | 0.00 | 0.02 | 0.00 | 56 | 1007.2 |
| 20260505151006 | 67 | 210 | 3.0 | 10.0 | 0.00 | 0.02 | 0.00 | 56 | 1007.1 |
| 20260505150508 | 67 | 191 | 4.0 | 10.0 | 0.00 | 0.02 | 0.00 | 55 | 1007.1 |
| 20260505140510 | 65 | 163 | 4.0 | 8.0 | 0.00 | 0.02 | 0.00 | 56 | 1007.2 |
| 20260505125004 | 60 | 136 | 2.0 | 8.0 | 0.00 | 0.02 | 0.00 | 64 | 1007.5 |
| 20260505124506 | 59 | 179 | 2.0 | 8.0 | 0.00 | 0.02 | 0.00 | 66 | 1007.5 |
| 20260505124008 | 59 | 214 | 1.0 | 4.0 | 0.00 | 0.02 | 0.00 | 66 | 1007.5 |
| 20260505123508 | 58 | 187 | 1.0 | 4.0 | 0.00 | 0.02 | 0.00 | 66 | 1007.5 |
| 20260505123011 | 58 | 142 | 1.0 | 5.0 | 0.00 | 0.02 | 0.00 | 67 | 1007.5 |
| 20260505122504 | 58 | 168 | 1.0 | 5.0 | 0.00 | 0.02 | 0.00 | 67 | 1007.6 |
| 20260505122004 | 57 | 171 | 1.0 | 5.0 | 0.00 | 0.02 | 0.00 | 68 | 1007.7 |
| 20260505121519 | 57 | 195 | 1.0 | 7.0 | 0.00 | 0.02 | 0.00 | 70 | 1007.8 |
| 20260505121005 | 56 | 247 | 2.0 | 8.0 | 0.00 | 0.02 | 0.00 | 70 | 1008.1 |
| 20260505120507 | 56 | 157 | 2.0 | 8.0 | 0.00 | 0.02 | 0.00 | 71 | 1007.8 |
| 20260505120020 | 55 | 236 | 1.0 | 4.0 | 0.00 | 0.02 | 0.00 | 74 | 1008.0 |
| 20260505115511 | 54 | 223 | 1.0 | 3.0 | 0.00 | 0.02 | 0.00 | 75 | 1008.0 |
| 20260505115009 | 54 | 190 | 1.0 | 5.0 | 0.00 | 0.02 | 0.00 | 75 | 1008.0 |
| 20260505114524 | 53 | 168 | 0.0 | 5.0 | 0.00 | 0.02 | 0.00 | 77 | 1008.0 |
| 20260505114004 | 52 | 174 | 0.0 | 5.0 | 0.00 | 0.02 | 0.00 | 78 | 1007.9 |
| 20260505113504 | 51 | 172 | 1.0 | 5.0 | 0.00 | 0.02 | 0.00 | 79 | 1007.9 |
| 20260505113006 | 50 | 157 | 1.0 | 3.0 | 0.00 | 0.02 | 0.00 | 81 | 1008.0 |
| 20260505112504 | 50 | 167 | 0.0 | 3.0 | 0.00 | 0.02 | 0.00 | 82 | 1008.1 |
| 20260505112003 | 49 | 165 | 0.0 | 1.0 | 0.00 | 0.02 | 0.00 | 84 | 1008.1 |
| 20260505111513 | 49 | 159 | 0.0 | 2.0 | 0.00 | 0.02 | 0.00 | 84 | 1008.1 |
| 20260505111005 | 48 | 238 | 0.0 | 4.0 | 0.00 | 0.02 | 0.00 | 84 | 1008.3 |
| 20260505110509 | 48 | 238 | 0.0 | 4.0 | 0.00 | 0.02 | 0.00 | 84 | 1008.2 |
| 20260505102003 | 45 | 187 | 0.0 | 0.0 | 0.00 | 0.02 | 0.00 | 86 | 1007.9 |
| 20260505101513 | 45 | 181 | 0.0 | 0.0 | 0.00 | 0.02 | 0.00 | 86 | 1007.8 |
| 20260505101003 | 45 | 181 | 0.0 | 0.0 | 0.00 | 0.02 | 0.00 | 87 | 1007.8 |
| 20260505100506 | 45 | 181 | 0.0 | 0.0 | 0.00 | 0.02 | 0.00 | 87 | 1007.7 |
| 20260505100017 | 45 | 181 | 0.0 | 0.0 | 0.00 | 0.02 | 0.00 | 87 | 1007.8 |
| 20260505095506 | 45 | 181 | 0.0 | 0.0 | 0.00 | 0.02 | 0.00 | 87 | 1007.7 |
| 20260505095009 | 45 | 181 | 0.0 | 0.0 | 0.00 | 0.02 | 0.00 | 87 | 1007.7 |
| 20260505094526 | 45 | 181 | 0.0 | 0.0 | 0.00 | 0.02 | 0.00 | 87 | 1007.7 |
| 20260505094009 | 45 | 181 | 0.0 | 0.0 | 0.00 | 0.02 | 0.00 | 87 | 1007.7 |
| 20260505093506 | 44 | 181 | 0.0 | 0.0 | 0.00 | 0.02 | 0.00 | 87 | 1007.6 |
| 20260505093024 | 44 | 181 | 0.0 | 0.0 | 0.00 | 0.02 | 0.00 | 87 | 1007.7 |
| 20260505092511 | 44 | 179 | 0.0 | 0.0 | 0.00 | 0.02 | 0.00 | 87 | 1007.7 |
| 20260505092010 | 44 | 186 | 0.0 | 0.0 | 0.00 | 0.02 | 0.00 | 87 | 1007.7 |
| 20260505091527 | 44 | 192 | 0.0 | 0.0 | 0.00 | 0.02 | 0.00 | 87 | 1007.7 |
| 20260505091006 | 44 | 192 | 0.0 | 0.0 | 0.00 | 0.02 | 0.00 | 87 | 1007.7 |
| 20260505090503 | 44 | 192 | 0.0 | 0.0 | 0.00 | 0.02 | 0.00 | 87 | 1007.8 |
| 20260505090014 | 44 | 192 | 0.0 | 0.0 | 0.00 | 0.02 | 0.00 | 87 | 1007.8 |
| 20260505085503 | 44 | 192 | 0.0 | 0.0 | 0.00 | 0.02 | 0.00 | 87 | 1007.8 |
| 20260505085003 | 44 | 192 | 0.0 | 0.0 | 0.00 | 0.02 | 0.00 | 87 | 1007.8 |
| 20260505084531 | 44 | 192 | 0.0 | 0.0 | 0.00 | 0.02 | 0.00 | 87 | 1007.8 |
| 20260505084009 | 44 | 192 | 0.0 | 0.0 | 0.00 | 0.02 | 0.00 | 87 | 1007.8 |
| 20260505083507 | 44 | 182 | 0.0 | 0.0 | 0.00 | 0.02 | 0.00 | 87 | 1007.9 |
| 20260505083025 | 44 | 182 | 0.0 | 0.0 | 0.00 | 0.02 | 0.00 | 87 | 1007.9 |
| 20260505082507 | 44 | 182 | 0.0 | 0.0 | 0.00 | 0.02 | 0.00 | 86 | 1007.9 |
| 20260505082010 | 44 | 182 | 0.0 | 0.0 | 0.00 | 0.02 | 0.00 | 87 | 1007.9 |
| 20260505081524 | 44 | 182 | 0.0 | 0.0 | 0.00 | 0.02 | 0.00 | 85 | 1007.9 |
| 20260505081011 | 45 | 182 | 0.0 | 0.0 | 0.00 | 0.02 | 0.00 | 84 | 1007.9 |
| 20260505080510 | 45 | 182 | 0.0 | 0.0 | 0.00 | 0.02 | 0.00 | 84 | 1008.0 |
| 20260505080025 | 45 | 182 | 0.0 | 0.0 | 0.00 | 0.02 | 0.00 | 83 | 1008.0 |
| 20260505075503 | 45 | 182 | 0.0 | 0.0 | 0.00 | 0.02 | 0.00 | 84 | 1008.0 |
| 20260505075006 | 45 | 182 | 0.0 | 0.0 | 0.00 | 0.02 | 0.00 | 84 | 1007.9 |
| 20260505074514 | 45 | 182 | 0.0 | 0.0 | 0.00 | 0.02 | 0.00 | 83 | 1007.9 |
| 20260505074004 | 46 | 182 | 0.0 | 0.0 | 0.00 | 0.02 | 0.00 | 83 | 1007.9 |
| 20260505073507 | 46 | 182 | 0.0 | 0.0 | 0.00 | 0.02 | 0.00 | 83 | 1007.9 |
| 20260505073033 | 46 | 182 | 0.0 | 0.0 | 0.00 | 0.02 | 0.00 | 83 | 1008.0 |
| 20260505072506 | 46 | 182 | 0.0 | 0.0 | 0.00 | 0.02 | 0.00 | 82 | 1008.0 |
| 20260505072007 | 46 | 182 | 0.0 | 0.0 | 0.00 | 0.02 | 0.00 | 81 | 1007.9 |
| 20260505071525 | 47 | 182 | 0.0 | 0.0 | 0.00 | 0.02 | 0.00 | 80 | 1007.9 |
| 20260505071008 | 47 | 182 | 0.0 | 0.0 | 0.00 | 0.02 | 0.00 | 80 | 1008.0 |
| 20260505070504 | 48 | 182 | 0.0 | 0.0 | 0.00 | 0.02 | 0.00 | 79 | 1007.9 |
| 20260505070009 | 48 | 182 | 0.0 | 0.0 | 0.00 | 0.02 | 0.00 | 78 | 1007.9 |
| 20260505065504 | 48 | 182 | 0.0 | 0.0 | 0.00 | 0.02 | 0.00 | 78 | 1007.9 |
| 20260505065004 | 49 | 182 | 0.0 | 0.0 | 0.00 | 0.02 | 0.00 | 77 | 1007.9 |
| 20260505064513 | 49 | 182 | 0.0 | 0.0 | 0.00 | 0.02 | 0.00 | 77 | 1007.9 |
| 20260505064003 | 49 | 182 | 0.0 | 0.0 | 0.00 | 0.02 | 0.00 | 76 | 1007.8 |
| 20260505063504 | 50 | 182 | 0.0 | 0.0 | 0.00 | 0.02 | 0.00 | 76 | 1007.8 |
| 20260505063021 | 50 | 182 | 0.0 | 0.0 | 0.00 | 0.02 | 0.00 | 75 | 1007.9 |
| 20260505062508 | 50 | 182 | 0.0 | 2.0 | 0.00 | 0.02 | 0.00 | 75 | 1007.8 |
| 20260505062009 | 50 | 182 | 0.0 | 2.0 | 0.00 | 0.02 | 0.00 | 75 | 1007.8 |
| 20260505061530 | 50 | 252 | 0.0 | 2.0 | 0.00 | 0.02 | 0.00 | 75 | 1007.8 |
| 20260505061008 | 50 | 216 | 0.0 | 1.0 | 0.00 | 0.02 | 0.00 | 75 | 1007.8 |
| 20260505060512 | 50 | 223 | 0.0 | 0.0 | 0.00 | 0.02 | 0.00 | 76 | 1007.8 |
| 20260505060027 | 49 | 211 | 0.0 | 0.0 | 0.00 | 0.02 | 0.00 | 77 | 1007.8 |
| 20260505055504 | 49 | 211 | 0.0 | 2.0 | 0.00 | 0.02 | 0.00 | 77 | 1007.8 |
| 20260505055004 | 49 | 211 | 0.0 | 2.0 | 0.00 | 0.02 | 0.00 | 78 | 1007.9 |
| 20260505054508 | 48 | 171 | 0.0 | 0.0 | 0.00 | 0.02 | 0.00 | 79 | 1007.9 |
| 20260505054005 | 48 | 171 | 0.0 | 0.0 | 0.00 | 0.02 | 0.00 | 79 | 1007.8 |
| 20260505053506 | 48 | 171 | 0.0 | 2.0 | 0.00 | 0.02 | 0.00 | 79 | 1007.8 |
| 20260505053017 | 48 | 171 | 0.0 | 2.0 | 0.00 | 0.02 | 0.00 | 79 | 1007.7 |
| 20260505052504 | 48 | 174 | 0.0 | 1.0 | 0.00 | 0.02 | 0.00 | 79 | 1007.7 |
| 20260505052007 | 48 | 271 | 0.0 | 0.0 | 0.00 | 0.02 | 0.00 | 79 | 1007.7 |
| 20260505051521 | 48 | 271 | 0.0 | 1.0 | 0.00 | 0.02 | 0.00 | 79 | 1007.7 |
| 20260505051008 | 48 | 271 | 0.0 | 2.0 | 0.00 | 0.02 | 0.00 | 79 | 1007.7 |
| 20260505050508 | 48 | 255 | 0.0 | 2.0 | 0.00 | 0.02 | 0.00 | 79 | 1007.6 |
| 20260505041530 | 48 | 181 | 1.0 | 2.0 | 0.00 | 0.02 | 0.00 | 81 | 1007.3 |
| 20260505041007 | 47 | 226 | 0.0 | 2.0 | 0.00 | 0.02 | 0.00 | 81 | 1007.2 |
| 20260505040508 | 47 | 193 | 0.0 | 2.0 | 0.00 | 0.02 | 0.00 | 82 | 1007.3 |
| 20260505040035 | 47 | 190 | 0.0 | 0.0 | 0.00 | 0.02 | 0.00 | 82 | 1007.2 |
| 20260505035511 | 47 | 190 | 0.0 | 0.0 | 0.00 | 0.02 | 0.02 | 82 | 1007.1 |
| 20260505035011 | 46 | 190 | 0.0 | 0.0 | 0.00 | 0.02 | 0.02 | 82 | 1007.1 |
| 20260505034525 | 46 | 190 | 0.0 | 0.0 | 0.00 | 0.02 | 0.02 | 82 | 1007.0 |
| 20260505034006 | 47 | 190 | 0.0 | 0.0 | 0.00 | 0.02 | 0.02 | 82 | 1007.0 |
| 20260505033508 | 47 | 205 | 0.0 | 0.0 | 0.00 | 0.02 | 0.02 | 82 | 1007.0 |
| 20260505033011 | 47 | 205 | 0.0 | 0.0 | 0.00 | 0.02 | 0.02 | 82 | 1007.0 |
| 20260505032504 | 47 | 205 | 0.0 | 0.0 | 0.00 | 0.02 | 0.02 | 81 | 1007.0 |
| 20260505032006 | 47 | 207 | 0.0 | 0.0 | 0.00 | 0.02 | 0.02 | 81 | 1007.0 |
| 20260505031531 | 47 | 207 | 0.0 | 0.0 | 0.00 | 0.02 | 0.02 | 81 | 1007.1 |
| 20260505031006 | 47 | 207 | 0.0 | 0.0 | 0.00 | 0.02 | 0.02 | 80 | 1007.0 |
| 20260505030504 | 47 | 207 | 0.0 | 0.0 | 0.00 | 0.02 | 0.02 | 80 | 1006.9 |
| 20260505030020 | 47 | 207 | 0.0 | 0.0 | 0.00 | 0.02 | 0.02 | 79 | 1007.0 |
| 20260505025507 | 48 | 207 | 0.0 | 0.0 | 0.00 | 0.02 | 0.02 | 79 | 1007.0 |
| 20260505025011 | 48 | 207 | 0.0 | 1.0 | 0.00 | 0.02 | 0.02 | 79 | 1007.1 |
| 20260505024524 | 48 | 207 | 0.0 | 2.0 | 0.00 | 0.02 | 0.02 | 78 | 1007.1 |
| 20260505024007 | 48 | 207 | 0.0 | 2.0 | 0.00 | 0.02 | 0.02 | 78 | 1007.2 |
| 20260505023509 | 48 | 207 | 0.0 | 2.0 | 0.00 | 0.02 | 0.02 | 78 | 1007.1 |
| 20260505023023 | 48 | 188 | 0.0 | 1.0 | 0.00 | 0.02 | 0.02 | 78 | 1007.1 |
| 20260505022510 | 48 | 186 | 0.0 | 2.0 | 0.00 | 0.02 | 0.02 | 77 | 1007.2 |
| 20260505022014 | 49 | 188 | 0.0 | 2.0 | 0.00 | 0.02 | 0.02 | 77 | 1007.2 |
| 20260505021509 | 49 | 188 | 1.0 | 2.0 | 0.00 | 0.02 | 0.02 | 77 | 1007.1 |
| 20260505021005 | 49 | 177 | 0.0 | 0.0 | 0.00 | 0.02 | 0.02 | 76 | 1007.0 |
| 20260505020503 | 49 | 177 | 0.0 | 2.0 | 0.00 | 0.02 | 0.02 | 77 | 1007.1 |
| 20260505020014 | 49 | 177 | 0.0 | 2.0 | 0.00 | 0.02 | 0.02 | 77 | 1007.0 |
| 20260505015505 | 49 | 157 | 0.0 | 2.0 | 0.00 | 0.02 | 0.02 | 77 | 1007.0 |
| 20260505015007 | 49 | 299 | 0.0 | 0.0 | 0.00 | 0.02 | 0.02 | 76 | 1007.0 |
| 20260505014528 | 49 | 299 | 0.0 | 0.0 | 0.00 | 0.02 | 0.02 | 76 | 1006.9 |
| 20260505014011 | 50 | 299 | 0.0 | 0.0 | 0.00 | 0.02 | 0.02 | 77 | 1006.9 |
| 20260505013511 | 50 | 299 | 0.0 | 0.0 | 0.00 | 0.02 | 0.02 | 76 | 1006.7 |
| 20260505013022 | 50 | 299 | 0.0 | 2.0 | 0.00 | 0.02 | 0.02 | 77 | 1006.7 |
| 20260505012509 | 50 | 249 | 0.0 | 2.0 | 0.00 | 0.02 | 0.02 | 75 | 1006.7 |
| 20260505012008 | 50 | 249 | 0.0 | 2.0 | 0.00 | 0.02 | 0.02 | 76 | 1006.7 |
| 20260505011528 | 51 | 247 | 0.0 | 2.0 | 0.00 | 0.02 | 0.02 | 77 | 1006.7 |
| 20260505011009 | 51 | 289 | 0.0 | 0.0 | 0.00 | 0.02 | 0.02 | 76 | 1006.6 |
| 20260505010510 | 51 | 292 | 0.0 | 0.0 | 0.00 | 0.02 | 0.02 | 75 | 1006.7 |
| 20260505010017 | 51 | 292 | 0.0 | 1.0 | 0.00 | 0.02 | 0.02 | 74 | 1006.6 |
| 20260505005504 | 52 | 292 | 0.0 | 1.0 | 0.00 | 0.02 | 0.02 | 74 | 1006.6 |
| 20260505005008 | 52 | 291 | 0.0 | 1.0 | 0.00 | 0.02 | 0.02 | 74 | 1006.5 |
| 20260505004516 | 53 | 250 | 0.0 | 1.0 | 0.00 | 0.02 | 0.02 | 74 | 1006.4 |
| 20260505004007 | 53 | 244 | 0.0 | 0.0 | 0.00 | 0.02 | 0.02 | 72 | 1006.2 |
| 20260505003511 | 53 | 244 | 0.0 | 0.0 | 0.00 | 0.02 | 0.02 | 71 | 1006.2 |
| 20260505003022 | 54 | 140 | 0.0 | 0.0 | 0.00 | 0.02 | 0.02 | 71 | 1006.1 |
| 20260505002507 | 54 | 140 | 0.0 | 1.0 | 0.00 | 0.02 | 0.02 | 70 | 1006.0 |
| 20260505002010 | 54 | 152 | 0.0 | 2.0 | 0.00 | 0.02 | 0.02 | 69 | 1005.9 |
| 20260505001528 | 55 | 161 | 0.0 | 2.0 | 0.00 | 0.02 | 0.02 | 68 | 1005.8 |
| 20260505001010 | 55 | 145 | 0.0 | 2.0 | 0.00 | 0.02 | 0.02 | 67 | 1005.7 |
| 20260505000514 | 56 | 130 | 0.0 | 2.0 | 0.00 | 0.02 | 0.02 | 66 | 1005.7 |
| 20260505000030 | 56 | 171 | 0.0 | 2.0 | 0.00 | 0.02 | 0.02 | 65 | 1005.6 |
| 20260504235510 | 57 | 173 | 0.0 | 2.0 | 0.00 | 0.02 | 0.02 | 62 | 1005.6 |
| 20260504235008 | 58 | 173 | 0.0 | 2.0 | 0.00 | 0.02 | 0.02 | 62 | 1005.5 |
| 20260504234513 | 58 | 173 | 0.0 | 2.0 | 0.00 | 0.02 | 0.02 | 60 | 1005.4 |
| 20260504234007 | 59 | 173 | 0.0 | 2.0 | 0.00 | 0.02 | 0.02 | 57 | 1005.5 |
| 20260504233506 | 60 | 196 | 0.0 | 0.0 | 0.00 | 0.02 | 0.02 | 55 | 1005.4 |
| 20260504233018 | 60 | 196 | 0.0 | 2.0 | 0.00 | 0.02 | 0.02 | 54 | 1005.3 |
| 20260504232510 | 61 | 196 | 0.0 | 2.0 | 0.00 | 0.02 | 0.02 | 54 | 1005.3 |
| 20260504232012 | 61 | 248 | 0.0 | 0.0 | 0.00 | 0.02 | 0.02 | 53 | 1005.2 |
| 20260504231524 | 62 | 248 | 0.0 | 0.0 | 0.00 | 0.02 | 0.02 | 54 | 1005.1 |
| 20260504231007 | 62 | 248 | 0.0 | 0.0 | 0.00 | 0.02 | 0.02 | 51 | 1005.2 |
| 20260504230508 | 62 | 262 | 0.0 | 0.0 | 0.00 | 0.02 | 0.02 | 49 | 1005.1 |
| 20260504230028 | 63 | 266 | 0.0 | 0.0 | 0.00 | 0.02 | 0.02 | 49 | 1005.0 |
| 20260504225511 | 63 | 266 | 0.0 | 2.0 | 0.00 | 0.02 | 0.02 | 48 | 1005.0 |
| 20260504225009 | 63 | 266 | 0.0 | 2.0 | 0.00 | 0.02 | 0.02 | 48 | 1005.0 |
| 20260504224526 | 63 | 295 | 0.0 | 2.0 | 0.00 | 0.02 | 0.02 | 47 | 1004.9 |
| 20260504224008 | 63 | 265 | 0.0 | 3.0 | 0.00 | 0.02 | 0.02 | 47 | 1004.8 |
| 20260504223507 | 64 | 307 | 0.0 | 3.0 | 0.00 | 0.02 | 0.02 | 46 | 1004.8 |
| 20260504223028 | 64 | 217 | 0.0 | 2.0 | 0.00 | 0.02 | 0.02 | 47 | 1004.8 |
| 20260504222507 | 64 | 286 | 0.0 | 2.0 | 0.00 | 0.02 | 0.02 | 46 | 1004.8 |
| 20260504222010 | 64 | 67 | 0.0 | 5.0 | 0.00 | 0.02 | 0.02 | 47 | 1004.8 |
| 20260504221520 | 64 | 92 | 0.0 | 5.0 | 0.00 | 0.02 | 0.02 | 47 | 1004.8 |
| 20260504221008 | 64 | 302 | 0.0 | 2.0 | 0.00 | 0.02 | 0.02 | 46 | 1004.9 |
| 20260504220509 | 64 | 208 | 0.0 | 3.0 | 0.00 | 0.02 | 0.02 | 47 | 1004.8 |
| 20260504220026 | 64 | 185 | 0.0 | 3.0 | 0.00 | 0.02 | 0.02 | 47 | 1004.9 |
| 20260504215507 | 64 | 185 | 0.0 | 2.0 | 0.00 | 0.02 | 0.02 | 46 | 1005.0 |
| 20260504215012 | 64 | 225 | 0.0 | 4.0 | 0.00 | 0.02 | 0.02 | 45 | 1005.0 |
| 20260504214527 | 64 | 312 | 1.0 | 8.0 | 0.00 | 0.02 | 0.02 | 47 | 1005.1 |
| 20260504214008 | 65 | 352 | 2.0 | 8.0 | 0.00 | 0.02 | 0.02 | 45 | 1005.1 |
| 20260504213512 | 65 | 242 | 2.0 | 7.0 | 0.00 | 0.02 | 0.02 | 44 | 1005.0 |
| 20260504213042 | 65 | 221 | 1.0 | 8.0 | 0.00 | 0.02 | 0.02 | 44 | 1005.0 |
| 20260504212506 | 65 | 317 | 0.0 | 10.0 | 0.00 | 0.02 | 0.02 | 44 | 1005.0 |
| 20260504212008 | 66 | 248 | 3.0 | 10.0 | 0.00 | 0.02 | 0.02 | 44 | 1005.0 |
| 20260504211528 | 66 | 236 | 2.0 | 7.0 | 0.00 | 0.02 | 0.02 | 43 | 1004.9 |
| 20260504211008 | 66 | 241 | 2.0 | 7.0 | 0.00 | 0.02 | 0.02 | 44 | 1004.8 |
| 20260504210504 | 65 | 216 | 2.0 | 8.0 | 0.01 | 0.02 | 0.02 | 44 | 1004.9 |
| 20260504210008 | 65 | 117 | 2.0 | 9.0 | 0.01 | 0.02 | 0.02 | 46 | 1004.8 |
| 20260504205504 | 64 | 282 | 2.0 | 12.0 | 0.01 | 0.02 | 0.02 | 48 | 1004.8 |
| 20260504205005 | 64 | 40 | 2.0 | 12.0 | 0.01 | 0.02 | 0.02 | 47 | 1004.9 |
| 20260504204519 | 63 | 190 | 2.0 | 11.0 | 0.01 | 0.02 | 0.02 | 49 | 1004.8 |
| 20260504204007 | 63 | 145 | 3.0 | 8.0 | 0.01 | 0.02 | 0.02 | 49 | 1004.8 |
| 20260504203505 | 63 | 210 | 2.0 | 7.0 | 0.01 | 0.02 | 0.02 | 49 | 1004.8 |
| 20260504203020 | 63 | 255 | 2.0 | 6.0 | 0.01 | 0.02 | 0.02 | 50 | 1004.8 |
| 20260504202506 | 63 | 306 | 1.0 | 6.0 | 0.01 | 0.02 | 0.02 | 49 | 1004.8 |
| 20260504202007 | 64 | 254 | 2.0 | 8.0 | 0.01 | 0.02 | 0.02 | 50 | 1004.7 |
| 20260504201515 | 64 | 352 | 2.0 | 11.0 | 0.01 | 0.02 | 0.02 | 49 | 1004.7 |
| 20260504201006 | 64 | 215 | 5.0 | 12.0 | 0.01 | 0.02 | 0.02 | 48 | 1004.7 |
| 20260504200510 | 64 | 229 | 4.0 | 12.0 | 0.00 | 0.01 | 0.01 | 49 | 1004.7 |
| 20260504200024 | 63 | 293 | 1.0 | 7.0 | 0.00 | 0.01 | 0.01 | 53 | 1004.6 |
| 20260504195503 | 63 | 335 | 2.0 | 6.0 | 0.00 | 0.01 | 0.01 | 54 | 1004.8 |
| 20260504195004 | 62 | 244 | 2.0 | 10.0 | 0.00 | 0.01 | 0.01 | 55 | 1004.9 |
| 20260504194508 | 61 | 132 | 3.0 | 11.0 | 0.00 | 0.01 | 0.01 | 55 | 1004.9 |
| 20260504194004 | 61 | 259 | 4.0 | 12.0 | 0.00 | 0.01 | 0.01 | 57 | 1004.8 |
| 20260504193505 | 61 | 244 | 4.0 | 12.0 | 0.00 | 0.01 | 0.01 | 56 | 1004.9 |
| 20260504193008 | 61 | 197 | 3.0 | 10.0 | 0.00 | 0.01 | 0.01 | 59 | 1004.9 |
| 20260504192505 | 60 | 246 | 2.0 | 10.0 | 0.00 | 0.01 | 0.01 | 60 | 1005.0 |
| 20260504192007 | 60 | 201 | 0.0 | 7.0 | 0.00 | 0.01 | 0.01 | 62 | 1005.0 |
| 20260504191516 | 58 | 252 | 1.0 | 7.0 | 0.00 | 0.01 | 0.01 | 65 | 1005.2 |
| 20260504191007 | 58 | 126 | 3.0 | 7.0 | 0.00 | 0.01 | 0.01 | 65 | 1005.1 |
| 20260504190507 | 57 | 341 | 2.0 | 6.0 | 0.00 | 0.01 | 0.01 | 67 | 1005.2 |
| 20260504190023 | 56 | 303 | 2.0 | 6.0 | 0.00 | 0.01 | 0.01 | 69 | 1005.3 |
| 20260504185508 | 56 | 202 | 1.0 | 4.0 | 0.00 | 0.01 | 0.01 | 72 | 1005.4 |
| 20260504185009 | 56 | 248 | 1.0 | 3.0 | 0.00 | 0.01 | 0.01 | 72 | 1005.4 |
| 20260504184524 | 55 | 308 | 0.0 | 3.0 | 0.00 | 0.01 | 0.01 | 76 | 1005.4 |
| 20260504184004 | 55 | 230 | 0.0 | 2.0 | 0.00 | 0.01 | 0.01 | 74 | 1005.4 |